Miscellaneous Local Product
Issued by NWS Hastings, NE

Home | Current Version | Previous Version | Text Only | Print | Product List | Glossary Off
Versions: 1 2 3 4 5 6 7 8 9 10 11 12 13 14 15 16 17 18 19 20 21 22 23 24 25 26 27 28 29 30 31 32 33 34 35 36 37 38 39 40 41 42 43 44 45 46 47 48 49 50

000
AXUS43 KGID 261702
MISGRI

GID CWA HOURLY WEATHER ROUNDUP
NATIONAL WEATHER SERVICE HASTINGS NE
1200 PM CDT WED AUG 26 2015

NOTE: "FAIR" INDICATES FEW OR NO CLOUDS BELOW 12,000 FEET WITH NO
SIGNIFICANT WEATHER AND/OR OBSTRUCTIONS TO VISIBILITY.

...SOUTH CENTRAL NEBRASKA...

CITY           SKY/WX    TMP DP  RH WIND       PRES   REMARKS
GRAND ISLAND   SUNNY     78  63  59 SE10      30.14F
HASTINGS       SUNNY     79  64  60 S9        30.14S
KEARNEY        SUNNY     81  66  61 SE13      30.13F
ORD            SUNNY     79  62  56 S8        30.12F
YORK           SUNNY     75  64  69 SE7       30.16S
AURORA         SUNNY     76  65  69 SE8       30.15S
LEXINGTON      SUNNY     81  71  71 SE14      30.13S
HOLDREGE       SUNNY     80  67  63 SE12      30.14S
HEBRON         SUNNY     79  62  55 SE6       30.15F

...NEBRASKA PANHANDLE...

CITY           SKY/WX    TMP DP  RH WIND       PRES   REMARKS
CHADRON        MOSUNNY   86  60  41 NE5       30.07F
ALLIANCE       SUNNY     86  58  38 S9        30.12F
SCOTTSBLUFF    SUNNY     80  58  46 SE6       30.13S
SIDNEY         SUNNY     90  50  25 S8        30.17S

...WESTERN AND NORTH CENTRAL NEBRASKA...

CITY           SKY/WX    TMP DP  RH WIND       PRES   REMARKS
VALENTINE      MOSUNNY   86  64  47 VRB5      30.08S
AINSWORTH      SUNNY     82  67  59 S10       30.10S
ONEILL         SUNNY     78  63  60 S10       30.13S
BROKEN BOW     SUNNY     83  66  56 S12G22    30.12F
IMPERIAL       SUNNY     85  63  47 SE9       30.13F
NORTH PLATTE   SUNNY     81  65  58 SE6       30.12F
MCCOOK         SUNNY     84  64  50 SE12      30.12F

...EASTERN NEBRASKA...

CITY           SKY/WX    TMP DP  RH WIND       PRES   REMARKS
NORFOLK        MOSUNNY   74  59  59 SE14      30.15F
SO SIOUX CITY  CLOUDY    67  56  67 S10       30.16S
TEKAMAH        PTSUNNY   69  58  67 SE13      30.16F
COLUMBUS       SUNNY     75  59  57 E8        30.16S
ALBION         SUNNY     74  60  61 SE9       30.15S
OMAHA EPPLEY   MOSUNNY   73  56  54 SE10      30.22R
OFFUTT AFB     MOSUNNY   73  58  59 SE8       30.19F
MILLARD        MOSUNNY   70  58  66 NE7G18    30.19S
LINCOLN        SUNNY     76  59  55 SE10      30.18S
NEBRASKA CITY  SUNNY     73  51  46 SE9       30.20S
BEATRICE       SUNNY     76  62  62 SE9       30.17S
FALLS CITY     SUNNY     76  60  57 SE9       30.19F

...NORTHERN KANSAS...

CITY           SKY/WX    TMP DP  RH WIND       PRES   REMARKS
GOODLAND       SUNNY     93  55  27 S8        30.16S HX  91
HILL CITY      SUNNY     87  65  47 SE9       30.13S
NORTON         SUNNY     82  63  51 SE10      30.12S
PHILLIPSBURG   SUNNY     86  66  51 SE8       30.12S
SMITH CENTER   SUNNY     82  64  54 SE14      30.13S
HAYS           SUNNY     88  64  45 S9G16     30.12S
RUSSELL        SUNNY     88  67  49 SE14      30.11F HX  91
CONCORDIA      SUNNY     80  64  58 SE9       30.15S
SALINA         SUNNY     84  67  56 SE8       30.14F
TOPEKA         SUNNY     78  61  55 E6        30.19S



USA.gov is the U.S. government's official web portal to all federal, state and local government web resources and services.